{"data":{"norad_id":53474,"intl_designator":"2022-099K","name":"STARLINK-4445","alt_names":[],"object_type":"PAYLOAD","status":"ACTIVE","operator":null,"country":"US","launch_date":"2022-08-12","launch_site_code":"AFWTR","launch_vehicle":null,"mission":null,"orbit_class":"UNKNOWN","rcs_meters":null,"size_class":null,"mass_kg":null,"dimensions":null,"purposes":["comms"],"wikipedia_slug":null,"has_3d_model":false,"image_url":null,"decayed_at":null,"tle_current":{"epoch":"2026-09-21T00:00:02.000160Z","epoch_age_seconds":35325,"freshness":"FRESH","line1":"1 53474U 22099K   26264.00002315 -.00023439  00000+0 -10646-2 0  9997","line2":"2 53474  97.2849  17.8972 0002177 116.2489 237.0114 15.20798764  5806","mean_motion":15.20798764,"eccentricity":0.0002177,"inclination_deg":97.2849,"raan_deg":17.8972,"arg_perigee_deg":116.2489,"mean_anomaly_deg":237.0114,"bstar":-0.0010646,"rev_number":580,"period_min":94.687083793553,"perigee_km":501.9318533467,"apogee_km":504.92808760565,"semimajor_km":6881.5669704762,"source":"CELESTRAK","updated_at":"2026-09-21T09:00:32.888289Z"}}}